This is the latest recevied weather packets stored in our database for station/object DB0TGO-14. If no packets are shown the sender has not sent any weather packets the latest 1 day(s).
| Time | Temp. | Humidity | Pressure | Rain* | Wind** | Luminosity | Snow |
|---|---|---|---|---|---|---|---|
| 1836274829 | 16.11° C | 87% | 1019 hPa | 0 mm | 0.89 m/s, 112° | - | - |
| 1836274715 | 16.11° C | 87% | 1019 hPa | 0 mm | 0.45 m/s, 158° | - | - |
| 1836274595 | 16.11° C | 87% | 1019 hPa | 0 mm | 0.89 m/s, 180° | - | - |
| 1836274510 | 16.11° C | 87% | 1018.8 hPa | 0 mm | 0.89 m/s, 180° | - | - |
| 1836274485 | 16.11° C | 87% | 1018.9 hPa | 0 mm | 0.89 m/s, 158° | - | - |
| 1836274460 | 16.11° C | 87% | 1019 hPa | 0 mm | 0.89 m/s, 180° | - | - |
| 1836274396 | 16.11° C | 87% | 1018.9 hPa | 0 mm | 0.89 m/s, 158° | - | - |
| 1836274375 | 16.11° C | 88% | 1019 hPa | 0 mm | 0.45 m/s, 158° | - | - |
| 1836274296 | 16.11° C | 87% | 1019 hPa | 0 mm | 0.89 m/s, 180° | - | - |
| 1836274275 | 16.11° C | 88% | 1019 hPa | 0 mm | 0.45 m/s, 135° | - | - |
| 1836274265 | 16.11° C | 88% | 1019 hPa | 0 mm | 0.45 m/s, 135° | - | - |
| 1836274192 | 16.11° C | 87% | 1018.9 hPa | 0 mm | 0.89 m/s, 202° | - | - |
| 1836274166 | 16.11° C | 88% | 1019 hPa | 0 mm | 0.45 m/s, 135° | - | - |
| 1836273990 | 16.11° C | 88% | 1019 hPa | 0 mm | 0.45 m/s, 112° | - | - |
| 1778024017 | 11.67° C | 96% | 1008 hPa | 0 mm | 0.89 m/s, 0° | - | - |
| 1778023905 | 11.67° C | 96% | 1008.1 hPa | 0 mm | 0.89 m/s, 45° | - | - |
| 1778023800 | 11.67° C | 96% | 1008 hPa | 0 mm | 1.34 m/s, 45° | - | - |
| 1778023690 | 11.67° C | 96% | 1008.1 hPa | 0 mm | 1.34 m/s, 45° | - | - |
| 1778023637 | 11.67° C | 96% | 1008.1 hPa | 0 mm | 1.34 m/s, 338° | - | - |
| 1778023580 | 11.67° C | 95% | 1008.1 hPa | 0 mm | 1.34 m/s, 45° | - | - |
| 1778023465 | 11.67° C | 95% | 1008.1 hPa | 0 mm | 0.89 m/s, 45° | - | - |
| 1778023350 | 12.22° C | 95% | 1008.1 hPa | 0 mm | 1.34 m/s, 68° | - | - |
| 1778023248 | 12.22° C | 95% | 1008.1 hPa | 0 mm | 1.79 m/s, 68° | - | - |
| 1778023128 | 12.22° C | 95% | 1008.1 hPa | 0 mm | 1.79 m/s, 22° | - | - |
| 1778023015 | 12.22° C | 95% | 1008.1 hPa | 0 mm | 1.34 m/s, 22° | - | - |
* Rain latest hour (hover to see other rain measurements)
** Current wind speed in m/s (hover to see current wind gust speed)